Regional Weather Roundup
Issued by NWS Cleveland, OH

Home | Current Version | Previous Version | Graphics & Text | Print | Product List | Glossary On
Versions: 1 2 3 4 5 6 7 8 9 10 11 12 13 14 15 16 17 18 19 20 21 22 23 24 25 26 27 28 29 30 31 32 33 34 35 36 37 38 39 40 41 42 43 44 45 46 47 48 49 50
411
ASUS41 KCLE 092010
RWRCLE
OHIO REGIONAL WEATHER ROUNDUP
NATIONAL WEATHER SERVICE CLEVELAND, OH
300 PM EST TUE FEB 09 2016

NOTE: "FAIR" INDICATES FEW OR NO CLOUDS BELOW 12,000 FEET WITH NO
SIGNIFICANT WEATHER AND/OR OBSTRUCTIONS TO VISIBILITY.

OHZ001>008-015>018-024>027-034-035-043-044-092100-
   NORTHWEST OHIO

CITY           SKY/WX    TMP DP  RH WIND       PRES   REMARKS
DEFIANCE       CLOUDY    30  20  66 NW14G20   29.67R WCI  19
FINDLAY        CLOUDY    30  23  75 W16       29.64R WCI  19
TOLEDO EXPRESS CLOUDY    28  21  75 NW12      29.63R WCI  18
TOLEDO EXEC    CLOUDY    30  23  75 NW14      29.64R WCI  19
LIMA           CLOUDY    26  22  84 W15       29.66R WCI  14
$$

OHZ009>014-019>023-028>033-038-089-092100-
   NORTHEAST OHIO

CITY           SKY/WX    TMP DP  RH WIND       PRES   REMARKS
CLE-HOPKINS    LGT SNOW  30  25  81 SW15      29.60S WCI  19
CLE-LAKEFRONT  LGT SNOW  32  27  81 SW14      29.57S WCI  22
CUY CO. ARPT   LGT SNOW  32  28  86 W12       29.57S WCI  23
LORAIN-ELYRIA  CLOUDY    30  24  78 W16       29.59S WCI  19
ASHTABULA      CLOUDY    31  26  82 SW13G20   29.55S WCI  21
AKRON-CANTON   CLOUDY    28  23  81 W13       29.58R WCI  17
WOOSTER        CLOUDY    28  23  81 W17       29.59S WCI  16
MANSFIELD      LGT SNOW  26  23  88 SW13G21   29.60R FOG     WCI  15
YOUNGSTOWN     FLURRIES  30  25  81 W10       29.55R WCI  21
$$

OHZ042-051>053-060>062-070>072-077>081-092100-
  SOUTHWEST OHIO

CITY           SKY/WX    TMP DP  RH WIND       PRES   REMARKS
CINC-COVINGTON LGT SNOW  23  18  80 W14       29.77R WCI  11
CINC-LUNKEN    LGT SNOW  25  17  72 W16       29.80R WCI  12
HAMILTON       LGT SNOW  24  19  81 W13G20    29.79R VSB 3/4 WCI  12
DAYTON         LGT SNOW  23  19  85 W18       29.72R FOG     WCI   9
WRIGHT-PAT AFB LGT SNOW  24  20  87 W12       29.72R VSB 1   WCI  13
DAYTON GENERAL LGT SNOW  23  17  78 W10       29.73R WCI  12
WILMINGTON     LGT SNOW  22  17  81 W18       29.71S WCI   7
$$

OHZ036-037-039>041-045>050-054>059-063>069-073>076-082>088-092100-
  CENTRAL AND SOUTHEAST OHIO

CITY           SKY/WX    TMP DP  RH WIND       PRES   REMARKS
COLUMBUS       CLOUDY    25  17  72 W13G20    29.68R WCI  14
OSU AIRPORT    LGT SNOW  25  19  78 W17G23    29.68R WCI  12
BOLTON FIELD   CLOUDY    25  19  80 W14       29.69R WCI  13
RICKENBACK AFB CLOUDY    24  20  83 W14       29.70R WCI  12
NEWARK         CLOUDY    26  21  81 MISG      29.66R HAZE
MARION         LGT SNOW  26  20  77 W15       29.64S WCI  14
LANCASTER      CLOUDY    25  19  78 W14       29.70R WCI  13
ZANESVILLE     LGT SNOW  26  20  77 SW14      29.67R WCI  14
NEW PHILLY     CLOUDY    26  21  81 SW12G17   29.63R WCI  16
$$




USA.gov is the U.S. government's official web portal to all federal, state and local government web resources and services.